This is the latest recevied weather packets stored in our database for station/object IU8UOQ-5. If no packets are shown the sender has not sent any weather packets the latest 10 day(s).
| Time | Temp. | Humidity | Pressure | Rain* | Wind** | Luminosity | Snow |
|---|---|---|---|---|---|---|---|
| 1777567948 | 21.67° C | 48% | 1007.5 hPa | - | - | - | - |
| 1777566747 | 21.67° C | 47% | 1007.1 hPa | - | - | - | - |
| 1777565546 | 21.67° C | 46% | 1007.2 hPa | - | - | - | - |
| 1777564344 | 22.22° C | 46% | 1007.3 hPa | - | - | - | - |
| 1777563143 | 22.22° C | 44% | 1007.1 hPa | - | - | - | - |
| 1777561942 | 22.78° C | 42% | 1006.9 hPa | - | - | - | - |
| 1777560741 | 22.22° C | 45% | 1007 hPa | - | - | - | - |
| 1777559539 | 22.22° C | 46% | 1007.1 hPa | - | - | - | - |
| 1777558338 | 22.22° C | 47% | 1007 hPa | - | - | - | - |
| 1777557137 | 22.22° C | 52% | 1007.2 hPa | - | - | - | - |
| 1777555936 | 22.22° C | 52% | 1007.2 hPa | - | - | - | - |
| 1777554734 | 22.22° C | 51% | 1007.4 hPa | - | - | - | - |
| 1777553533 | 22.78° C | 53% | 1007.5 hPa | - | - | - | - |
| 1777552332 | 23.33° C | 52% | 1007.6 hPa | - | - | - | - |
| 1777551131 | 23.33° C | 51% | 1007.5 hPa | - | - | - | - |
| 1777549929 | 23.89° C | 58% | 1007.2 hPa | - | - | - | - |
| 1777548728 | 23.33° C | 62% | 1007.3 hPa | - | - | - | - |
| 1777547527 | 22.78° C | 63% | 1007.6 hPa | - | - | - | - |
| 1777546325 | 22.78° C | 57% | 1007.4 hPa | - | - | - | - |
| 1777545124 | 22.78° C | 59% | 1007.1 hPa | - | - | - | - |
| 1777543923 | 21.67° C | 59% | 1007.4 hPa | - | - | - | - |
| 1777542722 | 20.56° C | 58% | 1007.6 hPa | - | - | - | - |
| 1777541520 | 20.56° C | 58% | 1007.7 hPa | - | - | - | - |
| 1777540319 | 20° C | 49% | 1007.5 hPa | - | - | - | - |
| 1777539118 | 20° C | 49% | 1007.9 hPa | - | - | - | - |
* Rain since midnight (hover to see other rain measurements)
** Current wind speed in m/s (hover to see current wind gust speed)